TimeEST,TemperatureF,Dew PointF,Humidity,Sea Level PressureIn,VisibilityMPH,Wind Direction,Wind SpeedMPH,Gust SpeedMPH,PrecipitationIn,Events,Conditions,WindDirDegrees,DateUTC
12:53 AM,61.0,48.0,62,29.95,10.0,SW,5.8,-,N/A,,Overcast,220,2012-12-05 05:53:00
1:53 AM,60.1,48.9,67,29.94,10.0,Calm,Calm,-,0.00,Rain,Light Rain,0,2012-12-05 06:53:00
2:53 AM,57.9,50.0,75,29.99,10.0,NW,13.8,-,N/A,,Overcast,320,2012-12-05 07:53:00
3:53 AM,53.1,46.9,80,30.01,10.0,WNW,8.1,-,0.00,,Overcast,300,2012-12-05 08:53:00
4:53 AM,52.0,43.0,71,30.01,10.0,WNW,10.4,-,N/A,,Scattered Clouds,290,2012-12-05 09:53:00
5:53 AM,52.0,41.0,66,30.04,10.0,WNW,9.2,-,N/A,,Overcast,300,2012-12-05 10:53:00
6:53 AM,50.0,37.9,63,30.08,10.0,WNW,16.1,23.0,N/A,,Clear,290,2012-12-05 11:53:00
7:53 AM,46.9,36.0,66,30.11,10.0,WNW,13.8,-,N/A,,Clear,290,2012-12-05 12:53:00
9:53 AM,46.9,34.0,61,30.12,10.0,WNW,12.7,-,N/A,,Clear,290,2012-12-05 14:53:00
10:53 AM,48.0,32.0,54,30.12,10.0,WNW,18.4,24.2,N/A,,Clear,300,2012-12-05 15:53:00
11:53 AM,51.1,34.0,52,30.10,10.0,NW,18.4,26.5,N/A,,Clear,320,2012-12-05 16:53:00
12:53 PM,52.0,30.9,45,30.09,10.0,NW,19.6,27.6,N/A,,Clear,310,2012-12-05 17:53:00
1:53 PM,50.0,30.0,46,30.11,10.0,NW,20.7,32.2,N/A,,Clear,310,2012-12-05 18:53:00
2:53 PM,48.9,30.0,48,30.12,10.0,NW,18.4,27.6,N/A,,Clear,320,2012-12-05 19:53:00
3:53 PM,46.9,27.0,46,30.14,10.0,WNW,23.0,28.8,N/A,,Partly Cloudy,300,2012-12-05 20:53:00
4:53 PM,45.0,27.0,49,30.17,10.0,WNW,16.1,27.6,N/A,,Partly Cloudy,300,2012-12-05 21:53:00
5:53 PM,43.0,25.0,49,30.21,10.0,NNW,16.1,26.5,N/A,,Scattered Clouds,330,2012-12-05 22:53:00
6:53 PM,39.9,21.9,49,30.25,10.0,NNW,15.0,-,N/A,,Partly Cloudy,340,2012-12-05 23:53:00
7:53 PM,37.9,18.0,45,30.27,10.0,NNW,12.7,-,N/A,,Clear,330,2012-12-06 00:53:00
8:53 PM,37.0,19.0,48,30.27,10.0,NNW,13.8,19.6,N/A,,Clear,330,2012-12-06 01:53:00
9:53 PM,36.0,19.0,50,30.28,10.0,NNW,8.1,-,N/A,,Clear,340,2012-12-06 02:53:00
10:53 PM,35.1,19.9,54,30.28,10.0,NNW,8.1,-,N/A,,Clear,330,2012-12-06 03:53:00
11:53 PM,32.0,19.0,59,30.30,10.0,NW,3.5,-,N/A,,Clear,310,2012-12-06 04:53:00